Regional Weather Roundup
Issued by NWS Little Rock, AR

Home | Current Version | Previous Version | Graphics & Text | Print | Product List | Glossary On
Versions: 1 2 3 4 5 6 7 8 9 10 11 12 13 14 15 16 17 18 19 20 21 22 23 24 25 26 27 28 29 30 31 32 33 34 35 36 37 38 39 40 41 42 43 44 45 46 47 48 49 50
686
ASUS44 KLZK 181205
RWRLZK

WEATHER ROUNDUP FOR ARKANSAS
NATIONAL WEATHER SERVICE LITTLE ROCK AR
600 AM CST MON DEC 18 2017

NOTE: "FAIR" INDICATES FEW OR NO CLOUDS BELOW 12,000 FEET WITH NO
SIGNIFICANT WEATHER AND/OR OBSTRUCTIONS TO VISIBILITY.

ARZ001-003-010-029-181300-
NORTHWEST ARKANSAS

CITY           SKY/WX    TMP DP  RH WIND       PRES   REMARKS
FAYETTEVILLE   CLOUDY    44  42  93 SW3       30.14R
6HR MIN TEMP:  44; 6HR MAX TEMP:  46;

FORT SMITH     CLOUDY    47  46  97 W3        30.16S
6HR MIN TEMP:  47; 6HR MAX TEMP:  49;

HARRISON       CLOUDY    45  39  79 W7        30.12R
6HR MIN TEMP:  45; 6HR MAX TEMP:  48;

BENTONVILLE    CLOUDY    43  42  97 SW5       30.15R
6HR MIN TEMP:  43; 6HR MAX TEMP:  45;

ROGERS         CLOUDY    43  42  97 SW8       30.13S
6HR MIN TEMP:  43; 6HR MAX TEMP:  45;

SILOAM SPGS    CLOUDY    43  42  97 SW7       30.14R
6HR MIN TEMP:  43; 6HR MAX TEMP:  45;

HIGHFILL       CLOUDY    44  43  96 SW7       30.13R
6HR MIN TEMP:  44; 6HR MAX TEMP:  45;

SPRINGDALE     CLOUDY    45  45 100 W6        30.15
$$

ARZ004-005-016-181300-
NORTH CENTRAL ARKANSAS

CITY           SKY/WX    TMP DP  RH WIND       PRES   REMARKS
BATESVILLE     LGT RAIN  44  44 100 S3        30.15R FOG
6HR MIN TEMP:  44; 6HR MAX TEMP:  45; 6HR PCP:  0.01;

FLIPPIN        CLOUDY    48  43  82 W7        30.13R
6HR MIN TEMP:  46; 6HR MAX TEMP:  48;

MTN HOME       CLOUDY    47  43  86 NW6       30.11R
6HR MIN TEMP:  46; 6HR MAX TEMP:  47;

$$

ARZ040-041-181300-
WEST CENTRAL ARKANSAS

CITY           SKY/WX    TMP DP  RH WIND       PRES   REMARKS
MENA           CLOUDY    46  46 100 CALM      30.17R
MOUNT IDA      CLOUDY    47  45  93 CALM      30.14R
6HR MIN TEMP:  46; 6HR MAX TEMP:  47;

$$

ARZ009-017-025-026-028-181300-
NORTHEAST ARKANSAS

CITY           SKY/WX    TMP DP  RH WIND       PRES   REMARKS
CORNING        CLOUDY    45  45 100 SW6       30.13S
JONESBORO      CLOUDY    44  44 100 SW9       30.15S
6HR MIN TEMP:  44; 6HR MAX TEMP:  46;

NEWPORT        CLOUDY    44  43  96 SW7       30.17R
6HR MIN TEMP:  43; 6HR MAX TEMP:  44; 6HR PCP: TRACE;

WALNUT RIDGE   CLOUDY    44  43  96 SW10      30.14S
6HR MIN TEMP:  44; 6HR MAX TEMP:  45; 6HR PCP: TRACE;

BLYTHEVILLE    CLOUDY    45  45 100 SW6       30.16S FOG
6HR MIN TEMP:  45; 6HR MAX TEMP:  46;

$$

ARZ022-023-033-042-044-181300-
CENTRAL ARKANSAS

CITY           SKY/WX    TMP DP  RH WIND       PRES   REMARKS
LITTLE ROCK    CLOUDY    44  44 100 SW6       30.19R
6HR MIN TEMP:  42; 6HR MAX TEMP:  45; 6HR PCP: TRACE;

N LITTLE ROCK    N/A     44  43  97 S5        30.21R
6HR MIN TEMP:  42; 6HR MAX TEMP:  44;

JACKSONVILLE   CLOUDY    45  45  99 S5        30.16R
6HR MIN TEMP:  43; 6HR MAX TEMP:  45;

SEARCY         CLOUDY    45  45 100 S6        30.17R
6HR MIN TEMP:  44; 6HR MAX TEMP:  45;

HOT SPRINGS    CLOUDY    47  46  97 W3        30.18R
6HR MIN TEMP:  46; 6HR MAX TEMP:  47;

RUSSELLVILLE   CLOUDY    47  44  90 W3        30.15R
6HR MIN TEMP:  47; 6HR MAX TEMP:  48;

CLINTON        CLOUDY    46  46 100 CALM      30.14S FOG
$$

ARZ036-181300-
EAST ARKANSAS

CITY           SKY/WX    TMP DP  RH WIND       PRES   REMARKS
WEST MEMPHIS   CLOUDY    43  43 100 VRB3      30.18R FOG
6HR MIN TEMP:  43; 6HR MAX TEMP:  45;

$$

ARZ050-053-066-070-073-181300-
SOUTHWEST ARKANSAS

CITY           SKY/WX    TMP DP  RH WIND       PRES   REMARKS
ARKADELPHIA    CLOUDY    46  45  96 CALM      30.20F
6HR MIN TEMP:  45; 6HR MAX TEMP:  46; 6HR PCP:  0.01;

CAMDEN         CLOUDY    45  43  93 CALM      30.20R FOG
TEXARKANA      CLOUDY    46  46 100 CALM      30.18S FOG
6HR MIN TEMP:  45; 6HR MAX TEMP:  47;

EL DORADO      CLOUDY    45  45 100 CALM      30.20S FOG
6HR MIN TEMP:  45; 6HR MAX TEMP:  46;

DE QUEEN       CLOUDY    47  47 100 CALM      30.18R FOG
6HR MIN TEMP:  47; 6HR MAX TEMP:  48;

$$

ARZ056-057-069-181300-
SOUTHEAST ARKANSAS

CITY           SKY/WX    TMP DP  RH WIND       PRES   REMARKS
PINE BLUFF     CLOUDY    44  43  96 W5        30.20R
6HR MIN TEMP:  43; 6HR MAX TEMP:  44;

STUTTGART      CLOUDY    44  43  96 SW6       30.20R FOG
6HR MIN TEMP:  43; 6HR MAX TEMP:  44; 6HR PCP:  0.01;

MONTICELLO     CLOUDY    44  43  96 CALM      30.20R FOG
6HR MIN TEMP:  43; 6HR MAX TEMP:  45;


$$






USA.gov is the U.S. government's official web portal to all federal, state and local government web resources and services.